Preview of NWS' New Version of Forecast
This preview is not operational and should not be used for support decisions.

Regional Weather Roundup (RWR)

Issued by National Weather Service (NWS)

                            
000
ASCA42 TJSJ 210510
RWRPR 
PUERTO RICO/U.S. VIRGIN ISLANDS HOURLY WEATHER ROUNDUP
NATIONAL WEATHER SERVICE SAN JUAN PR
100 AM AST WED AUG 21 2019

PRZ001>002-007>008-010-210600-
PUERTO RICO
  
CITY           SKY/WX    TMP DP  RH WIND       PRES   REMARKS
SAN JUAN LMM   PTCLDY    81  75  83 CALM      30.05S                  
CEIBA          PTCLDY    82  75  78 E9        30.05F                  
$$

VIZ001>002-210600-
U.S. VIRGIN ISLANDS
  
CITY           SKY/WX    TMP DP  RH WIND       PRES   REMARKS
CHARLOTTE AMA  CLEAR     82  75  78 E6        30.02F                  
CHRISTIANSTED  PTCLDY    81  73  78 NE7       30.02F                  
$$

HOURLY WEATHER ROUNDUP FOR THE NEWS MEDIA
  
CITY           SKY/WX    TMP DP  RH WIND       PRES   REMARKS
ORLANDO        FAIR      78  75  90 SE6       30.10F                  
NEW YORK       FAIR      75  75 100 SE3       30.05R                  
NEWARK         FAIR      78  70  76 CALM      30.03S                  
CHICAGO        FAIR      70  64  81 CALM      29.98F                  
HARTFORD       FAIR      65  62  90 CALM      30.05S                  
BOSTON         FAIR      71  62  73 S6        30.03F                  
DALLAS         CLEAR     89  70  53 S7        30.01R HX  94           
PHILADELPHIA   MOCLDY    78  74  87 S9        30.04S                  
LOS ANGELES    CLEAR     69  61  75 SW7       29.88R                  
WASHINGTON DC  MOCLDY    71  68  90 SE5       30.05S